Regional Weather Roundup
Issued by NWS

Home | Current Version | Previous Version | Text Only | Print | Product List | Glossary Off
Versions: 1 2 3 4 5 6 7 8 9 10 11 12 13 14 15 16 17 18 19 20 21 22 23 24 25 26 27 28 29 30 31 32 33 34 35 36 37 38 39 40 41 42 43 44 45 46 47 48 49 50

000
ASUS43 KOAX 120310
RWRNE

WEATHER ROUNDUP FOR NEBRASKA
NATIONAL WEATHER SERVICE OMAHA NE
900 PM CST THU FEB 11 2016

NOTES: SATELLITE DATA IS BEING USED TO AUGMENT CLOUD COVER ABOVE
       12000 FEET.
       "FAIR" INDICATES FEW OR NO CLOUDS BELOW 12,000 FEET WITH NO
       SIGNIFICANT WEATHER AND/OR OBSTRUCTIONS TO VISIBILITY.

  * THESE STATIONS DO NOT REPORT WEATHER SUCH AS RAIN...SNOW OR FOG.

NEZ001>004-019>022-054>056-120400-
NEBRASKA PANHANDLE

CITY           SKY/WX    TMP DP  RH WIND       PRES   REMARKS
SCOTTSBLUFF    CLEAR     37  27  67 N5        30.22R WCI  33
ALLIANCE       CLOUDY    41  26  55 N16       30.17R
CHADRON        CLOUDY    35  25  66 NE5       30.19R WCI  31
KIMBALL        CLOUDY    38  27  64 NW12      30.23S WCI  31
SIDNEY         CLOUDY    36  29  75 W12       30.22R WCI  28
$$

NEZ057>060-069>072-079>082-120400-
SOUTHWEST NEBRASKA

CITY           SKY/WX    TMP DP  RH WIND       PRES   REMARKS
NORTH PLATTE   CLOUDY    34  28  79 NW5       30.15R WCI  30
IMPERIAL       CLOUDY    42  30  62 W10       30.17R
LEXINGTON      CLOUDY    32  29  88 NW6       30.14R WCI  26
MCCOOK         CLOUDY    37  31  78 W12       30.14R WCI  29
OGALLALA       CLOUDY    37  29  72 NW9       30.17S WCI  31
$$

NEZ005>010-023>029-035>040-094-120400-
NORTH CENTRAL NEBRASKA

CITY           SKY/WX    TMP DP  RH WIND       PRES   REMARKS
VALENTINE      CLOUDY    30  27  88 N6        30.18R WCI  24
AINSWORTH      CLOUDY    30  28  94 N8        30.17R WCI  22
BROKEN BOW     CLEAR     41  32  70 NW10      30.13R
O`NEILL        FOG       28  27  96 N8        30.17R VSB 3/4 WCI  19
ORD            CLEAR     36  30  79 N14       30.12R WCI  27
THEDFORD       PTCLDY    38  32  79 NW6       30.17R WCI  33
$$

NEZ041-046>049-061>064-073>077-083>087-120400-
SOUTH CENTRAL NEBRASKA

CITY           SKY/WX    TMP DP  RH WIND       PRES   REMARKS
GRAND ISLAND   CLEAR     25  23  92 SW7       30.14  FOG     WCI  17
AURORA         CLEAR     26  25  96 SW3       30.13S
HASTINGS       CLEAR     30  26  85 W6        30.13R WCI  24
HEBRON         CLEAR     26  24  95 CALM      30.15F FOG
HOLDREGE       CLOUDY    35  31  87 W6        30.13R WCI  30
KEARNEY *      CLOUDY    34  30  86 W5        30.14R WCI  30
YORK           CLEAR     27  27 100 SW7       30.14R FOG     WCI  19
$$

NEZ011>018-030>034-042>045-120400-
NORTHEAST NEBRASKA

CITY           SKY/WX    TMP DP  RH WIND       PRES   REMARKS
NORFOLK        CLOUDY    26  23  88 E5        30.16R FOG     WCI  20
ALBION         CLOUDY    29  26  88 E6        30.14R WCI  23
BLAIR          CLOUDY    24  20  85 NE6       30.18S WCI  16
COLUMBUS *     CLOUDY    27  18  69 SE7       30.17R WCI  19
FREMONT        CLOUDY    27  23  84 CALM      30.19S
TEKAMAH        CLOUDY    20  18  92 CALM      30.21S
WAYNE          CLOUDY    20  17  89 E7        30.19S WCI  11
$$

NEZ050>053-065>068-078-088>093-120400-
SOUTHEAST NEBRASKA

CITY           SKY/WX    TMP DP  RH WIND       PRES   REMARKS
LINCOLN        CLOUDY    30  24  78 E3        30.19S
OMAHA EPPLEY   FLURRIES  25  19  78 N5        30.21S WCI  19
BEATRICE       PTCLDY    28  25  87 CALM      30.16S
FALLS CITY     CLOUDY    30  21  69 SE3       30.17F
NEBRASKA CITY  CLOUDY    30  26  84 CALM      30.18S
PLATTSMOUTH    CLOUDY    29  24  82 NW5       30.19S WCI  24
$$

NEZ044-045-051>053-067-120400-
OMAHA AREA

CITY           SKY/WX    TMP DP  RH WIND       PRES   REMARKS
OMAHA EPPLEY   FLURRIES  25  19  78 N5        30.21S WCI  19
BLAIR          CLOUDY    24  20  85 NE6       30.18S WCI  16
FREMONT        CLOUDY    27  23  84 CALM      30.19S
MILLARD        CLOUDY    29  22  74 CALM      30.19S
OFFUTT AFB     MIX PCPN  28  23  80 NE7       30.19S WCI  21
PLATTSMOUTH    CLOUDY    29  24  82 NW5       30.19S WCI  24
WAHOO          CLOUDY    28  25  87 CALM      30.19S
$$



USA.gov is the U.S. government's official web portal to all federal, state and local government web resources and services.